Time,TemperatureF,DewpointF,PressureIn,WindDirection,WindDirectionDegrees,WindSpeedMPH,WindSpeedGustMPH,Humidity,HourlyPrecipIn,Conditions,Clouds,dailyrainin,SoftwareType,DateUTC
2013-04-18 00:01:00,48.6,47.5,30.11,North,0,0.0,0.0,96,0.03,,,0.00,WUHU216HW,2013-04-18 05:01:00,
2013-04-18 00:06:00,48.4,47.4,30.10,North,0,0.0,0.0,96,0.04,,,0.01,WUHU216HW,2013-04-18 05:06:00,
2013-04-18 00:11:00,47.9,46.8,30.10,North,0,0.0,0.0,96,0.05,,,0.02,WUHU216HW,2013-04-18 05:11:00,
2013-04-18 00:16:00,47.7,46.6,30.09,North,0,0.0,0.0,96,0.05,,,0.02,WUHU216HW,2013-04-18 05:16:00,
2013-04-18 00:21:00,47.7,46.6,30.08,North,0,0.0,0.0,96,0.05,,,0.03,WUHU216HW,2013-04-18 05:21:00,
2013-04-18 00:26:00,47.7,46.6,30.07,North,0,0.0,0.0,96,0.05,,,0.03,WUHU216HW,2013-04-18 05:26:00,
2013-04-18 00:31:00,47.9,46.8,30.07,North,0,0.0,0.0,96,0.06,,,0.03,WUHU216HW,2013-04-18 05:31:00,
2013-04-18 00:36:00,48.1,47.0,30.07,North,0,0.0,0.0,96,0.05,,,0.04,WUHU216HW,2013-04-18 05:36:00,
2013-04-18 00:41:00,48.6,47.5,30.07,North,0,0.0,0.0,96,0.07,,,0.06,WUHU216HW,2013-04-18 05:41:00,
2013-04-18 00:46:00,48.8,47.7,30.05,North,0,0.0,0.0,96,0.09,,,0.08,WUHU216HW,2013-04-18 05:46:00,
2013-04-18 00:51:00,49.0,47.9,30.05,North,0,0.0,0.0,96,0.11,,,0.10,WUHU216HW,2013-04-18 05:51:00,
2013-04-18 00:56:00,49.1,48.1,30.06,North,0,0.0,0.0,96,0.11,,,0.11,WUHU216HW,2013-04-18 05:56:00,
2013-04-18 01:01:00,49.3,48.3,30.06,North,0,0.0,0.0,96,0.12,,,0.12,WUHU216HW,2013-04-18 06:01:00,
2013-04-18 01:06:00,49.3,48.3,30.06,North,0,0.0,0.0,96,0.21,,,0.20,WUHU216HW,2013-04-18 06:06:00,
2013-04-18 01:11:00,49.5,48.1,30.06,North,0,0.0,0.0,95,0.33,,,0.33,WUHU216HW,2013-04-18 06:11:00,
2013-04-18 01:16:00,49.5,48.3,30.04,North,0,0.0,0.0,96,0.41,,,0.42,WUHU216HW,2013-04-18 06:16:00,
2013-04-18 01:21:00,49.9,48.7,30.04,North,0,0.0,0.0,96,0.46,,,0.47,WUHU216HW,2013-04-18 06:21:00,
2013-04-18 01:26:00,50.0,48.9,30.03,North,0,0.0,0.0,96,0.47,,,0.49,WUHU216HW,2013-04-18 06:26:00,
2013-04-18 01:31:00,50.0,48.6,30.02,North,0,0.0,0.0,95,0.47,,,0.51,WUHU216HW,2013-04-18 06:31:00,
2013-04-18 01:37:00,50.0,48.6,30.02,North,0,0.0,0.0,95,0.48,,,0.53,WUHU216HW,2013-04-18 06:37:00,
2013-04-18 01:42:00,50.0,48.6,30.02,North,0,0.0,0.0,95,0.50,,,0.56,WUHU216HW,2013-04-18 06:42:00,
2013-04-18 01:47:00,50.2,48.8,30.00,North,0,0.0,0.0,95,0.50,,,0.58,WUHU216HW,2013-04-18 06:47:00,
2013-04-18 01:52:00,50.2,48.8,29.99,North,0,0.0,0.0,95,0.52,,,0.60,WUHU216HW,2013-04-18 06:52:00,
2013-04-18 01:57:00,50.2,48.8,29.99,North,0,0.0,0.0,95,0.52,,,0.63,WUHU216HW,2013-04-18 06:57:00,
2013-04-18 02:02:00,50.0,48.6,29.98,North,0,0.0,0.0,95,0.50,,,0.67,WUHU216HW,2013-04-18 07:02:00,
2013-04-18 02:07:00,50.0,48.6,29.96,North,0,0.0,0.0,95,0.43,,,0.69,WUHU216HW,2013-04-18 07:07:00,
2013-04-18 02:12:00,49.9,48.4,29.96,North,0,0.0,0.0,95,0.35,,,0.72,WUHU216HW,2013-04-18 07:12:00,
2013-04-18 02:17:00,49.9,48.4,29.96,North,0,0.0,0.0,95,0.28,,,0.75,WUHU216HW,2013-04-18 07:17:00,
2013-04-18 02:22:00,50.0,48.6,29.98,North,0,0.0,0.0,95,0.28,,,0.77,WUHU216HW,2013-04-18 07:22:00,
2013-04-18 02:27:00,50.2,48.8,29.98,North,0,0.0,0.0,95,0.30,,,0.80,WUHU216HW,2013-04-18 07:27:00,
2013-04-18 02:32:00,50.2,48.8,29.99,North,0,0.0,0.0,95,0.31,,,0.82,WUHU216HW,2013-04-18 07:32:00,
2013-04-18 02:37:00,50.4,49.0,30.01,North,0,0.0,0.0,95,0.30,,,0.85,WUHU216HW,2013-04-18 07:37:00,
2013-04-18 02:42:00,50.8,49.3,30.01,North,0,0.0,0.0,95,0.30,,,0.87,WUHU216HW,2013-04-18 07:42:00,
2013-04-18 02:47:00,50.9,49.5,30.00,North,0,0.0,0.0,95,0.31,,,0.90,WUHU216HW,2013-04-18 07:47:00,
2013-04-18 02:52:00,51.1,49.7,29.99,North,0,0.0,0.0,95,0.31,,,0.93,WUHU216HW,2013-04-18 07:52:00,
2013-04-18 02:57:00,51.3,49.9,29.99,North,0,0.0,0.0,95,0.28,,,0.95,WUHU216HW,2013-04-18 07:57:00,
2013-04-18 03:02:00,51.3,49.9,29.98,North,0,0.0,0.0,95,0.28,,,0.96,WUHU216HW,2013-04-18 08:02:00,
2013-04-18 03:07:00,51.3,49.9,29.97,North,0,0.0,0.0,95,0.28,,,0.98,WUHU216HW,2013-04-18 08:07:00,
2013-04-18 03:12:00,51.1,49.7,29.96,North,0,0.0,0.0,95,0.28,,,1.00,WUHU216HW,2013-04-18 08:12:00,
2013-04-18 03:17:00,50.9,49.5,29.94,North,0,0.0,0.0,95,0.25,,,1.01,WUHU216HW,2013-04-18 08:17:00,
2013-04-18 03:22:00,50.6,49.1,29.93,North,0,0.0,0.0,95,0.24,,,1.02,WUHU216HW,2013-04-18 08:22:00,
2013-04-18 03:27:00,50.2,48.8,29.94,North,0,0.0,0.0,95,0.22,,,1.03,WUHU216HW,2013-04-18 08:27:00,
2013-04-18 03:32:00,50.0,48.6,29.95,North,0,0.0,0.0,95,0.21,,,1.04,WUHU216HW,2013-04-18 08:32:00,
2013-04-18 03:37:00,50.0,48.9,29.96,North,0,0.0,0.0,96,0.18,,,1.05,WUHU216HW,2013-04-18 08:37:00,
2013-04-18 03:42:00,50.4,49.2,29.96,North,0,0.0,0.0,96,0.17,,,1.05,WUHU216HW,2013-04-18 08:42:00,
2013-04-18 03:47:00,50.8,49.6,29.96,North,0,0.0,0.0,96,0.15,,,1.07,WUHU216HW,2013-04-18 08:47:00,
2013-04-18 03:52:00,51.1,50.0,29.95,North,0,0.0,0.0,96,0.15,,,1.09,WUHU216HW,2013-04-18 08:52:00,
2013-04-18 03:57:00,51.1,50.0,29.94,North,0,0.0,0.0,96,0.15,,,1.11,WUHU216HW,2013-04-18 08:57:00,
2013-04-18 04:02:00,51.3,50.1,29.92,North,0,0.0,0.0,96,0.16,,,1.14,WUHU216HW,2013-04-18 09:02:00,
2013-04-18 04:07:00,51.3,49.9,29.91,North,0,0.0,0.0,95,0.16,,,1.16,WUHU216HW,2013-04-18 09:07:00,
2013-04-18 04:12:00,51.3,49.9,29.89,North,0,0.0,0.0,95,0.15,,,1.16,WUHU216HW,2013-04-18 09:12:00,
2013-04-18 04:17:00,51.1,49.7,29.89,North,0,0.0,0.0,95,0.14,,,1.16,WUHU216HW,2013-04-18 09:17:00,
2013-04-18 04:22:00,50.9,49.8,29.90,North,0,0.0,0.0,96,0.13,,,1.16,WUHU216HW,2013-04-18 09:22:00,
2013-04-18 04:27:00,50.9,49.8,29.89,North,0,0.0,0.0,96,0.13,,,1.18,WUHU216HW,2013-04-18 09:27:00,
2013-04-18 04:32:00,50.9,49.8,29.88,North,0,0.0,0.0,96,0.14,,,1.18,WUHU216HW,2013-04-18 09:32:00,
2013-04-18 04:37:00,50.9,49.8,29.87,North,0,0.0,0.0,96,0.13,,,1.19,WUHU216HW,2013-04-18 09:37:00,
2013-04-18 04:42:00,50.9,49.8,29.88,North,0,0.0,0.0,96,0.13,,,1.20,WUHU216HW,2013-04-18 09:42:00,
2013-04-18 04:47:00,51.1,50.0,29.89,North,0,0.0,0.0,96,0.11,,,1.20,WUHU216HW,2013-04-18 09:47:00,
2013-04-18 04:52:00,51.3,50.1,29.87,North,0,0.0,0.0,96,0.11,,,1.21,WUHU216HW,2013-04-18 09:52:00,
2013-04-18 04:57:00,51.3,50.1,29.85,North,0,0.0,0.0,96,0.07,,,1.21,WUHU216HW,2013-04-18 09:57:00,
2013-04-18 05:02:00,51.3,50.1,29.87,North,0,0.0,0.0,96,0.07,,,1.21,WUHU216HW,2013-04-18 10:02:00,
2013-04-18 05:07:00,51.3,50.1,29.88,North,0,0.0,0.0,96,0.06,,,1.21,WUHU216HW,2013-04-18 10:07:00,
2013-04-18 05:12:00,51.5,50.3,29.87,North,0,0.0,0.0,96,0.05,,,1.21,WUHU216HW,2013-04-18 10:12:00,
2013-04-18 05:17:00,51.5,50.3,29.86,North,0,0.0,0.0,96,0.06,,,1.23,WUHU216HW,2013-04-18 10:17:00,
2013-04-18 05:22:00,52.0,50.9,29.86,North,0,0.0,0.0,96,0.07,,,1.23,WUHU216HW,2013-04-18 10:22:00,
2013-04-18 05:27:00,52.2,51.0,29.85,North,0,0.0,0.0,96,0.06,,,1.23,WUHU216HW,2013-04-18 10:27:00,
2013-04-18 05:32:00,52.6,51.4,29.84,North,0,0.0,0.0,96,0.06,,,1.25,WUHU216HW,2013-04-18 10:32:00,
2013-04-18 05:37:00,53.1,51.9,29.85,North,0,0.0,0.0,96,0.05,,,1.25,WUHU216HW,2013-04-18 10:37:00,
2013-04-18 05:42:00,53.5,52.3,29.85,North,0,0.0,0.0,96,0.05,,,1.25,WUHU216HW,2013-04-18 10:42:00,
2013-04-18 05:47:00,53.6,52.5,29.86,North,0,0.0,0.0,96,0.06,,,1.25,WUHU216HW,2013-04-18 10:47:00,
2013-04-18 05:52:00,53.6,52.7,29.89,North,0,0.0,0.0,97,0.06,,,1.27,WUHU216HW,2013-04-18 10:52:00,
2013-04-18 05:58:00,53.6,52.2,29.88,North,0,0.0,0.0,95,0.07,,,1.27,WUHU216HW,2013-04-18 10:58:00,
2013-04-18 06:04:00,53.3,51.8,29.83,North,0,0.0,0.0,95,0.11,,,1.32,WUHU216HW,2013-04-18 11:04:00,
2013-04-18 06:18:00,53.5,52.3,29.82,North,0,0.0,0.0,96,0.12,,,1.34,WUHU216HW,2013-04-18 11:18:00,
2013-04-18 06:23:00,53.5,52.3,29.85,North,0,0.0,0.0,96,0.11,,,1.35,WUHU216HW,2013-04-18 11:23:00,
2013-04-18 06:28:00,53.6,52.7,29.86,North,0,0.0,0.0,97,0.11,,,1.35,WUHU216HW,2013-04-18 11:28:00,
2013-04-18 06:33:00,54.0,53.1,29.86,North,0,0.0,0.0,97,0.11,,,1.36,WUHU216HW,2013-04-18 11:33:00,
2013-04-18 06:38:00,54.2,53.3,29.86,North,0,0.0,0.0,97,0.11,,,1.36,WUHU216HW,2013-04-18 11:38:00,
2013-04-18 06:43:00,54.2,53.3,29.86,North,0,0.0,0.0,97,0.11,,,1.36,WUHU216HW,2013-04-18 11:43:00,
2013-04-18 06:48:00,54.2,53.3,29.86,North,0,0.0,0.0,97,0.09,,,1.36,WUHU216HW,2013-04-18 11:48:00,
2013-04-18 06:53:00,54.0,53.1,29.86,North,0,0.0,0.0,97,0.09,,,1.36,WUHU216HW,2013-04-18 11:53:00,
2013-04-18 06:58:00,54.0,52.8,29.87,North,0,0.0,0.0,96,0.06,,,1.36,WUHU216HW,2013-04-18 11:58:00,
2013-04-18 07:03:00,53.8,52.9,29.88,North,0,0.0,0.0,97,0.04,,,1.36,WUHU216HW,2013-04-18 12:03:00,
2013-04-18 07:08:00,53.8,52.9,29.89,North,0,0.0,0.0,97,0.02,,,1.37,WUHU216HW,2013-04-18 12:08:00,
2013-04-18 07:13:00,53.8,52.7,29.88,North,0,0.0,0.0,96,0.02,,,1.37,WUHU216HW,2013-04-18 12:13:00,
2013-04-18 07:18:00,53.8,52.7,29.88,North,0,0.0,0.0,96,0.03,,,1.38,WUHU216HW,2013-04-18 12:18:00,
2013-04-18 07:23:00,54.0,52.8,29.87,North,0,0.0,0.0,96,0.04,,,1.39,WUHU216HW,2013-04-18 12:23:00,
2013-04-18 07:28:00,54.0,52.8,29.87,North,0,0.0,0.0,96,0.04,,,1.40,WUHU216HW,2013-04-18 12:28:00,
2013-04-18 07:33:00,54.0,52.8,29.87,North,0,0.0,0.0,96,0.05,,,1.41,WUHU216HW,2013-04-18 12:33:00,
2013-04-18 07:38:00,54.2,53.0,29.88,North,0,0.0,0.0,96,0.07,,,1.42,WUHU216HW,2013-04-18 12:38:00,
2013-04-18 07:43:00,54.4,53.2,29.87,North,0,0.0,0.0,96,0.08,,,1.44,WUHU216HW,2013-04-18 12:43:00,
2013-04-18 07:48:00,54.5,53.4,29.87,North,0,0.0,0.0,96,0.09,,,1.45,WUHU216HW,2013-04-18 12:48:00,
2013-04-18 07:53:00,54.5,53.4,29.86,North,0,0.0,0.0,96,0.10,,,1.45,WUHU216HW,2013-04-18 12:53:00,
2013-04-18 07:58:00,54.5,53.4,29.84,North,0,0.0,0.0,96,0.10,,,1.46,WUHU216HW,2013-04-18 12:58:00,
2013-04-18 08:03:00,54.7,53.6,29.82,North,0,0.0,0.0,96,0.09,,,1.46,WUHU216HW,2013-04-18 13:03:00,
2013-04-18 08:08:00,54.7,53.8,29.81,North,0,0.0,0.0,97,0.09,,,1.46,WUHU216HW,2013-04-18 13:08:00,
2013-04-18 08:13:00,54.9,54.0,29.80,North,0,0.0,0.0,97,0.09,,,1.46,WUHU216HW,2013-04-18 13:13:00,
2013-04-18 08:18:00,55.1,53.9,29.81,North,0,0.0,0.0,96,0.08,,,1.46,WUHU216HW,2013-04-18 13:18:00,
2013-04-18 08:23:00,55.3,54.4,29.82,North,0,0.0,0.0,97,0.07,,,1.46,WUHU216HW,2013-04-18 13:23:00,
2013-04-18 08:28:00,55.3,54.4,29.80,North,0,0.0,0.0,97,0.05,,,1.46,WUHU216HW,2013-04-18 13:28:00,
2013-04-18 08:33:00,55.3,54.4,29.80,North,0,0.0,0.0,97,0.04,,,1.46,WUHU216HW,2013-04-18 13:33:00,
2013-04-18 08:38:00,55.4,54.3,29.81,North,0,0.0,0.0,96,0.03,,,1.46,WUHU216HW,2013-04-18 13:38:00,
2013-04-18 08:43:00,55.6,54.7,29.82,North,0,0.0,0.0,97,0.02,,,1.46,WUHU216HW,2013-04-18 13:43:00,
2013-04-18 08:48:00,55.8,54.6,29.84,North,0,0.0,0.0,96,0.01,,,1.46,WUHU216HW,2013-04-18 13:48:00,
2013-04-18 08:53:00,56.2,55.0,29.84,North,0,0.0,0.0,96,0.00,,,1.46,WUHU216HW,2013-04-18 13:53:00,
2013-04-18 08:58:00,56.3,55.2,29.85,North,0,0.0,0.0,96,0.00,,,1.46,WUHU216HW,2013-04-18 13:58:00,
2013-04-18 09:03:00,56.3,55.2,29.86,North,0,0.0,0.0,96,0.00,,,1.46,WUHU216HW,2013-04-18 14:03:00,
2013-04-18 09:08:00,56.5,55.4,29.87,North,0,0.0,0.0,96,0.00,,,1.46,WUHU216HW,2013-04-18 14:08:00,
2013-04-18 09:13:00,56.9,55.7,29.87,North,0,0.0,0.0,96,0.00,,,1.46,WUHU216HW,2013-04-18 14:13:00,
2013-04-18 09:18:00,57.2,56.1,29.88,North,0,0.0,0.0,96,0.00,,,1.46,WUHU216HW,2013-04-18 14:18:00,
2013-04-18 09:23:00,57.2,56.1,29.87,North,0,0.0,0.0,96,0.00,,,1.46,WUHU216HW,2013-04-18 14:23:00,
2013-04-18 09:28:00,57.1,55.9,29.86,North,0,0.0,0.0,96,0.00,,,1.46,WUHU216HW,2013-04-18 14:28:00,
2013-04-18 09:33:00,56.9,55.7,29.84,North,0,0.0,0.0,96,0.00,,,1.46,WUHU216HW,2013-04-18 14:33:00,
2013-04-18 09:38:00,56.9,55.7,29.84,North,0,0.0,0.0,96,0.00,,,1.46,WUHU216HW,2013-04-18 14:38:00,
2013-04-18 09:43:00,56.9,55.7,29.83,North,0,0.0,0.0,96,0.00,,,1.46,WUHU216HW,2013-04-18 14:43:00,
2013-04-18 09:48:00,57.1,55.9,29.84,North,0,0.0,0.0,96,0.00,,,1.46,WUHU216HW,2013-04-18 14:48:00,
2013-04-18 09:53:00,57.4,56.3,29.83,North,0,0.0,0.0,96,0.00,,,1.46,WUHU216HW,2013-04-18 14:53:00,
2013-04-18 09:58:00,57.6,56.4,29.82,North,0,0.0,0.0,96,0.00,,,1.46,WUHU216HW,2013-04-18 14:58:00,
2013-04-18 10:03:00,58.5,57.3,29.82,North,0,0.0,0.0,96,0.00,,,1.46,WUHU216HW,2013-04-18 15:03:00,
2013-04-18 10:08:00,59.0,57.9,29.82,North,0,0.0,0.0,96,0.00,,,1.46,WUHU216HW,2013-04-18 15:08:00,
2013-04-18 10:13:00,59.2,57.8,29.83,North,0,0.0,0.0,95,0.00,,,1.46,WUHU216HW,2013-04-18 15:13:00,
2013-04-18 10:18:00,59.0,57.6,29.83,North,0,0.0,0.0,95,0.00,,,1.46,WUHU216HW,2013-04-18 15:18:00,
2013-04-18 10:23:00,59.0,57.6,29.84,North,0,0.0,0.0,95,0.00,,,1.46,WUHU216HW,2013-04-18 15:23:00,
2013-04-18 10:28:00,59.0,57.6,29.84,North,0,0.0,0.0,95,0.00,,,1.46,WUHU216HW,2013-04-18 15:28:00,
2013-04-18 10:33:00,59.0,57.6,29.85,North,0,0.0,0.0,95,0.00,,,1.46,WUHU216HW,2013-04-18 15:33:00,
2013-04-18 10:38:00,59.0,57.6,29.85,North,0,0.0,0.0,95,0.00,,,1.46,WUHU216HW,2013-04-18 15:38:00,
2013-04-18 10:43:00,58.9,57.4,29.86,North,0,0.0,0.0,95,0.00,,,1.46,WUHU216HW,2013-04-18 15:43:00,
2013-04-18 10:48:00,58.7,57.2,29.85,North,0,0.0,0.0,95,0.00,,,1.46,WUHU216HW,2013-04-18 15:48:00,
2013-04-18 10:53:00,58.5,57.1,29.84,North,0,0.0,0.0,95,0.00,,,1.46,WUHU216HW,2013-04-18 15:53:00,
2013-04-18 10:58:00,58.7,57.2,29.85,North,0,0.0,0.0,95,0.00,,,1.46,WUHU216HW,2013-04-18 15:58:00,
2013-04-18 11:03:00,58.7,57.2,29.84,North,0,0.0,0.0,95,0.00,,,1.46,WUHU216HW,2013-04-18 16:03:00,
2013-04-18 11:08:00,58.7,57.2,29.84,North,0,0.0,0.0,95,0.00,,,1.46,WUHU216HW,2013-04-18 16:08:00,
2013-04-18 11:13:00,58.9,57.4,29.85,North,0,0.0,0.0,95,0.00,,,1.46,WUHU216HW,2013-04-18 16:13:00,
2013-04-18 11:18:00,58.9,57.4,29.85,North,0,0.0,0.0,95,0.00,,,1.46,WUHU216HW,2013-04-18 16:18:00,
2013-04-18 11:23:00,58.9,57.4,29.83,North,0,0.0,0.0,95,0.00,,,1.46,WUHU216HW,2013-04-18 16:23:00,
2013-04-18 11:28:00,58.9,57.4,29.81,North,0,0.0,0.0,95,0.00,,,1.46,WUHU216HW,2013-04-18 16:28:00,
2013-04-18 11:33:00,59.0,57.6,29.80,North,0,0.0,0.0,95,0.00,,,1.46,WUHU216HW,2013-04-18 16:33:00,
2013-04-18 11:38:00,59.2,57.8,29.79,North,0,0.0,0.0,95,0.00,,,1.46,WUHU216HW,2013-04-18 16:38:00,
2013-04-18 11:44:00,58.9,57.4,29.76,North,0,0.0,0.0,95,0.00,,,1.46,WUHU216HW,2013-04-18 16:44:00,
2013-04-18 11:49:00,58.5,57.1,29.75,North,0,0.0,0.0,95,0.00,,,1.46,WUHU216HW,2013-04-18 16:49:00,
2013-04-18 11:54:00,58.7,57.2,29.78,North,0,0.0,0.0,95,0.00,,,1.46,WUHU216HW,2013-04-18 16:54:00,
2013-04-18 11:59:00,59.0,57.6,29.79,North,0,0.0,0.0,95,0.00,,,1.46,WUHU216HW,2013-04-18 16:59:00,
2013-04-18 12:04:00,59.4,58.0,29.79,North,0,0.0,0.0,95,0.00,,,1.46,WUHU216HW,2013-04-18 17:04:00,
2013-04-18 12:09:00,59.6,58.1,29.81,North,0,0.0,0.0,95,0.00,,,1.46,WUHU216HW,2013-04-18 17:09:00,
2013-04-18 12:14:00,60.1,59.0,29.79,North,0,0.0,0.0,96,0.00,,,1.46,WUHU216HW,2013-04-18 17:14:00,
2013-04-18 12:19:00,60.1,59.0,29.76,North,0,0.0,0.0,96,0.00,,,1.46,WUHU216HW,2013-04-18 17:19:00,
2013-04-18 12:24:00,59.8,58.6,29.77,North,0,0.0,0.0,96,0.00,,,1.46,WUHU216HW,2013-04-18 17:24:00,
2013-04-18 12:29:00,59.8,58.6,29.78,North,0,0.0,0.0,96,0.00,,,1.46,WUHU216HW,2013-04-18 17:29:00,
2013-04-18 12:34:00,59.8,58.6,29.79,North,0,0.0,0.0,96,0.00,,,1.46,WUHU216HW,2013-04-18 17:34:00,
2013-04-18 12:39:00,59.6,58.1,29.78,North,0,0.0,0.0,95,0.00,,,1.46,WUHU216HW,2013-04-18 17:39:00,
2013-04-18 12:44:00,59.4,58.0,29.78,North,0,0.0,0.0,95,0.00,,,1.46,WUHU216HW,2013-04-18 17:44:00,
2013-04-18 12:49:00,59.4,58.0,29.78,North,0,0.0,0.0,95,0.00,,,1.46,WUHU216HW,2013-04-18 17:49:00,
2013-04-18 12:54:00,59.6,58.1,29.78,North,0,0.0,0.0,95,0.00,,,1.46,WUHU216HW,2013-04-18 17:54:00,
2013-04-18 12:59:00,59.6,58.1,29.77,North,0,0.0,0.0,95,0.00,,,1.46,WUHU216HW,2013-04-18 17:59:00,
2013-04-18 13:04:00,59.9,58.8,29.76,North,0,0.0,0.0,96,0.00,,,1.46,WUHU216HW,2013-04-18 18:04:00,
2013-04-18 13:09:00,59.9,58.8,29.76,North,0,0.0,0.0,96,0.00,,,1.46,WUHU216HW,2013-04-18 18:09:00,
2013-04-18 13:14:00,60.1,59.0,29.75,North,0,0.0,0.0,96,0.00,,,1.46,WUHU216HW,2013-04-18 18:14:00,
2013-04-18 13:19:00,60.1,59.0,29.75,North,0,0.0,0.0,96,0.00,,,1.46,WUHU216HW,2013-04-18 18:19:00,
2013-04-18 13:24:00,60.5,59.3,29.75,North,0,0.0,0.0,96,0.00,,,1.46,WUHU216HW,2013-04-18 18:24:00,
2013-04-18 13:29:00,60.5,59.3,29.74,North,0,0.0,0.0,96,0.00,,,1.46,WUHU216HW,2013-04-18 18:29:00,
2013-04-18 13:34:00,60.5,59.3,29.74,North,0,0.0,0.0,96,0.00,,,1.46,WUHU216HW,2013-04-18 18:34:00,
2013-04-18 13:39:00,60.5,59.3,29.72,North,0,0.0,0.0,96,0.00,,,1.46,WUHU216HW,2013-04-18 18:39:00,
2013-04-18 13:44:00,60.7,59.5,29.73,North,0,0.0,0.0,96,0.00,,,1.46,WUHU216HW,2013-04-18 18:44:00,
2013-04-18 13:49:00,61.2,60.0,29.73,North,0,0.0,0.0,96,0.00,,,1.46,WUHU216HW,2013-04-18 18:49:00,
2013-04-18 13:54:00,61.7,60.6,29.73,North,0,0.0,0.0,96,0.00,,,1.46,WUHU216HW,2013-04-18 18:54:00,
2013-04-18 13:59:00,62.3,60.8,29.73,North,0,0.0,0.0,95,0.00,,,1.46,WUHU216HW,2013-04-18 18:59:00,
2013-04-18 14:04:00,62.1,60.7,29.73,North,0,0.0,0.0,95,0.00,,,1.46,WUHU216HW,2013-04-18 19:04:00,
2013-04-18 14:09:00,61.9,60.5,29.73,North,0,0.0,0.0,95,0.00,,,1.46,WUHU216HW,2013-04-18 19:09:00,
2013-04-18 14:14:00,62.3,60.8,29.74,North,0,0.0,0.0,95,0.00,,,1.46,WUHU216HW,2013-04-18 19:14:00,
2013-04-18 14:19:00,62.3,60.6,29.74,North,0,0.0,0.0,94,0.00,,,1.46,WUHU216HW,2013-04-18 19:19:00,
2013-04-18 14:24:00,61.9,60.2,29.73,North,0,0.0,0.0,94,0.01,,,1.47,WUHU216HW,2013-04-18 19:24:00,
2013-04-18 14:29:00,61.4,59.7,29.72,North,0,0.0,0.0,94,0.02,,,1.48,WUHU216HW,2013-04-18 19:29:00,
2013-04-18 14:34:00,61.2,59.8,29.73,North,0,0.0,0.0,95,0.02,,,1.48,WUHU216HW,2013-04-18 19:34:00,
2013-04-18 14:39:00,61.0,59.6,29.72,North,0,0.0,0.0,95,0.02,,,1.48,WUHU216HW,2013-04-18 19:39:00,
2013-04-18 14:44:00,61.0,59.6,29.70,North,0,0.0,0.0,95,0.02,,,1.48,WUHU216HW,2013-04-18 19:44:00,
2013-04-18 14:49:00,61.2,59.8,29.70,North,0,0.0,0.0,95,0.02,,,1.48,WUHU216HW,2013-04-18 19:49:00,
2013-04-18 14:54:00,61.2,59.8,29.71,North,0,0.0,0.0,95,0.02,,,1.48,WUHU216HW,2013-04-18 19:54:00,
2013-04-18 14:59:00,61.4,59.9,29.69,North,0,0.0,0.0,95,0.02,,,1.48,WUHU216HW,2013-04-18 19:59:00,
2013-04-18 15:04:00,61.6,59.9,29.68,North,0,0.0,0.0,94,0.02,,,1.48,WUHU216HW,2013-04-18 20:04:00,
2013-04-18 15:09:00,61.7,60.0,29.69,North,0,0.0,0.0,94,0.02,,,1.48,WUHU216HW,2013-04-18 20:09:00,
2013-04-18 15:14:00,61.9,60.2,29.68,North,0,0.0,0.0,94,0.02,,,1.48,WUHU216HW,2013-04-18 20:14:00,
2013-04-18 15:19:00,62.1,60.4,29.68,North,0,0.0,0.0,94,0.01,,,1.48,WUHU216HW,2013-04-18 20:19:00,
2013-04-18 15:24:00,62.3,60.6,29.68,North,0,0.0,0.0,94,0.00,,,1.48,WUHU216HW,2013-04-18 20:24:00,
2013-04-18 15:29:00,62.1,60.1,29.68,North,0,0.0,0.0,93,0.00,,,1.48,WUHU216HW,2013-04-18 20:29:00,
2013-04-18 15:34:00,61.9,60.0,29.68,North,0,0.0,0.0,93,0.01,,,1.49,WUHU216HW,2013-04-18 20:34:00,
2013-04-18 15:39:00,61.9,60.0,29.68,North,0,0.0,0.0,93,0.01,,,1.49,WUHU216HW,2013-04-18 20:39:00,
2013-04-18 15:44:00,61.7,60.0,29.67,North,0,0.0,0.0,94,0.01,,,1.49,WUHU216HW,2013-04-18 20:44:00,
2013-04-18 15:49:00,61.6,59.9,29.67,North,0,0.0,0.0,94,0.01,,,1.49,WUHU216HW,2013-04-18 20:49:00,
2013-04-18 15:54:00,61.4,59.4,29.70,North,0,0.0,0.0,93,0.01,,,1.49,WUHU216HW,2013-04-18 20:54:00,
2013-04-18 15:59:00,59.9,56.7,29.71,North,0,0.0,0.0,89,0.01,,,1.49,WUHU216HW,2013-04-18 20:59:00,
2013-04-18 16:04:00,58.1,55.3,29.71,North,0,0.0,0.0,90,0.01,,,1.49,WUHU216HW,2013-04-18 21:04:00,
2013-04-18 16:09:00,56.9,54.0,29.71,North,0,0.0,0.0,90,0.01,,,1.49,WUHU216HW,2013-04-18 21:09:00,
2013-04-18 16:14:00,55.8,52.9,29.73,North,0,0.0,0.0,90,0.01,,,1.49,WUHU216HW,2013-04-18 21:14:00,
2013-04-18 16:19:00,54.5,51.9,29.74,North,0,0.0,0.0,91,0.01,,,1.49,WUHU216HW,2013-04-18 21:19:00,
2013-04-18 16:24:00,53.6,51.0,29.74,North,0,0.0,0.0,91,0.01,,,1.49,WUHU216HW,2013-04-18 21:24:00,
2013-04-18 16:29:00,52.9,50.0,29.74,North,0,0.0,0.0,90,0.00,,,1.49,WUHU216HW,2013-04-18 21:29:00,
2013-04-18 16:34:00,52.4,49.8,29.75,North,0,0.0,0.0,91,0.00,,,1.49,WUHU216HW,2013-04-18 21:34:00,
2013-04-18 16:39:00,51.7,48.8,29.76,North,0,0.0,0.0,90,0.01,,,1.50,WUHU216HW,2013-04-18 21:39:00,
2013-04-18 16:44:00,50.9,48.3,29.75,North,0,0.0,0.0,91,0.01,,,1.50,WUHU216HW,2013-04-18 21:44:00,
2013-04-18 16:49:00,50.4,47.8,29.74,North,0,0.0,0.0,91,0.01,,,1.50,WUHU216HW,2013-04-18 21:49:00,
2013-04-18 16:54:00,50.0,47.4,29.74,North,0,0.0,0.0,91,0.01,,,1.50,WUHU216HW,2013-04-18 21:54:00,
2013-04-18 16:59:00,49.5,47.0,29.75,North,0,0.0,0.0,91,0.01,,,1.50,WUHU216HW,2013-04-18 21:59:00,
2013-04-18 17:04:00,49.3,46.8,29.76,North,0,0.0,0.0,91,0.01,,,1.50,WUHU216HW,2013-04-18 22:04:00,
2013-04-18 17:09:00,49.0,46.4,29.76,North,0,0.0,0.0,91,0.01,,,1.50,WUHU216HW,2013-04-18 22:09:00,
2013-04-18 17:14:00,48.6,45.9,29.78,North,0,0.0,0.0,90,0.01,,,1.50,WUHU216HW,2013-04-18 22:14:00,
2013-04-18 17:19:00,48.2,45.5,29.77,North,0,0.0,0.0,90,0.01,,,1.50,WUHU216HW,2013-04-18 22:19:00,
2013-04-18 17:24:00,47.9,45.2,29.78,North,0,0.0,0.0,90,0.01,,,1.50,WUHU216HW,2013-04-18 22:24:00,
2013-04-18 17:29:00,47.7,45.0,29.78,North,0,0.0,0.0,90,0.01,,,1.50,WUHU216HW,2013-04-18 22:29:00,
2013-04-18 17:34:00,47.3,44.4,29.79,North,0,0.0,0.0,89,0.01,,,1.50,WUHU216HW,2013-04-18 22:34:00,
2013-04-18 17:39:00,47.2,44.2,29.79,North,0,0.0,0.0,89,0.00,,,1.50,WUHU216HW,2013-04-18 22:39:00,
2013-04-18 17:44:00,46.8,43.5,29.79,North,0,0.0,0.0,88,0.00,,,1.50,WUHU216HW,2013-04-18 22:44:00,
2013-04-18 17:49:00,46.4,43.5,29.79,North,0,0.0,0.0,89,0.00,,,1.50,WUHU216HW,2013-04-18 22:49:00,
2013-04-18 17:54:00,46.1,42.8,29.79,North,0,0.0,0.0,88,0.00,,,1.50,WUHU216HW,2013-04-18 22:54:00,
2013-04-18 17:59:00,45.9,42.6,29.79,North,0,0.0,0.0,88,0.00,,,1.50,WUHU216HW,2013-04-18 22:59:00,
2013-04-18 18:04:00,45.7,42.4,29.79,North,0,0.0,0.0,88,0.00,,,1.50,WUHU216HW,2013-04-18 23:04:00,
2013-04-18 18:09:00,45.4,42.0,29.79,North,0,0.0,0.0,88,0.00,,,1.50,WUHU216HW,2013-04-18 23:09:00,
2013-04-18 18:14:00,45.4,42.0,29.80,North,0,0.0,0.0,88,0.00,,,1.50,WUHU216HW,2013-04-18 23:14:00,
2013-04-18 18:19:00,45.0,41.7,29.80,North,0,0.0,0.0,88,0.00,,,1.50,WUHU216HW,2013-04-18 23:19:00,
2013-04-18 18:24:00,45.0,42.0,29.81,North,0,0.0,0.0,89,0.00,,,1.50,WUHU216HW,2013-04-18 23:24:00,
2013-04-18 18:29:00,44.8,41.5,29.81,North,0,0.0,0.0,88,0.00,,,1.50,WUHU216HW,2013-04-18 23:29:00,
2013-04-18 18:34:00,44.6,41.3,29.81,North,0,0.0,0.0,88,0.00,,,1.50,WUHU216HW,2013-04-18 23:34:00,
2013-04-18 18:39:00,44.6,41.1,29.81,North,0,0.0,0.0,87,0.00,,,1.50,WUHU216HW,2013-04-18 23:39:00,
2013-04-18 18:44:00,44.3,41.0,29.81,North,0,0.0,0.0,88,0.00,,,1.50,WUHU216HW,2013-04-18 23:44:00,
2013-04-18 18:49:00,44.1,40.5,29.81,North,0,0.0,0.0,87,0.00,,,1.50,WUHU216HW,2013-04-18 23:49:00,
2013-04-18 18:54:00,43.9,40.6,29.82,North,0,0.0,0.0,88,0.00,,,1.50,WUHU216HW,2013-04-18 23:54:00,
2013-04-18 18:59:00,43.7,39.5,29.82,North,0,0.0,0.0,85,0.00,,,1.50,WUHU216HW,2013-04-18 23:59:00,
2013-04-18 19:04:00,43.6,39.6,29.82,North,0,0.0,0.0,86,0.00,,,1.50,WUHU216HW,2013-04-19 00:04:00,
2013-04-18 19:09:00,43.4,39.2,29.82,North,0,0.0,0.0,85,0.00,,,1.50,WUHU216HW,2013-04-19 00:09:00,
2013-04-18 19:14:00,43.2,39.2,29.82,North,0,0.0,0.0,86,0.00,,,1.50,WUHU216HW,2013-04-19 00:14:00,
2013-04-18 19:19:00,43.0,39.1,29.82,North,0,0.0,0.0,86,0.00,,,1.50,WUHU216HW,2013-04-19 00:19:00,
2013-04-18 19:24:00,42.8,38.9,29.83,North,0,0.0,0.0,86,0.00,,,1.50,WUHU216HW,2013-04-19 00:24:00,
2013-04-18 19:29:00,42.7,38.7,29.83,North,0,0.0,0.0,86,0.00,,,1.50,WUHU216HW,2013-04-19 00:29:00,
2013-04-18 19:34:00,42.3,38.3,29.84,North,0,0.0,0.0,86,0.00,,,1.50,WUHU216HW,2013-04-19 00:34:00,
2013-04-18 19:39:00,42.1,38.2,29.84,North,0,0.0,0.0,86,0.00,,,1.50,WUHU216HW,2013-04-19 00:39:00,
2013-04-18 19:44:00,42.1,38.2,29.85,North,0,0.0,0.0,86,0.00,,,1.50,WUHU216HW,2013-04-19 00:44:00,
2013-04-18 19:49:00,41.9,38.4,29.86,North,0,0.0,0.0,87,0.00,,,1.50,WUHU216HW,2013-04-19 00:49:00,
2013-04-18 19:54:00,41.8,38.2,29.86,North,0,0.0,0.0,87,0.00,,,1.50,WUHU216HW,2013-04-19 00:54:00,
2013-04-18 19:59:00,41.6,38.0,29.87,North,0,0.0,0.0,87,0.00,,,1.50,WUHU216HW,2013-04-19 00:59:00,
2013-04-18 20:03:00,41.4,37.8,29.86,North,0,0.0,0.0,87,0.00,,,1.50,WUHU216HW,2013-04-19 01:03:00,
2013-04-18 20:08:00,41.2,37.6,29.87,North,0,0.0,0.0,87,0.00,,,1.50,WUHU216HW,2013-04-19 01:08:00,
2013-04-18 20:13:00,41.0,37.5,29.88,North,0,0.0,0.0,87,0.00,,,1.50,WUHU216HW,2013-04-19 01:13:00,
2013-04-18 20:18:00,40.9,37.3,29.89,North,0,0.0,0.0,87,0.00,,,1.50,WUHU216HW,2013-04-19 01:18:00,
2013-04-18 20:23:00,40.7,37.1,29.89,North,0,0.0,0.0,87,0.00,,,1.50,WUHU216HW,2013-04-19 01:23:00,
2013-04-18 20:28:00,40.5,36.9,29.89,North,0,0.0,0.0,87,0.00,,,1.50,WUHU216HW,2013-04-19 01:28:00,
2013-04-18 20:33:00,40.3,36.5,29.89,North,0,0.0,0.0,86,0.00,,,1.50,WUHU216HW,2013-04-19 01:33:00,
2013-04-18 20:38:00,40.1,36.3,29.90,North,0,0.0,0.0,86,0.00,,,1.50,WUHU216HW,2013-04-19 01:38:00,
2013-04-18 20:43:00,40.0,36.4,29.89,North,0,0.0,0.0,87,0.00,,,1.50,WUHU216HW,2013-04-19 01:43:00,
2013-04-18 20:48:00,40.0,36.4,29.90,North,0,0.0,0.0,87,0.00,,,1.50,WUHU216HW,2013-04-19 01:48:00,
2013-04-18 20:53:00,39.8,35.9,29.90,North,0,0.0,0.0,86,0.00,,,1.50,WUHU216HW,2013-04-19 01:53:00,
2013-04-18 20:58:00,39.8,36.2,29.90,North,0,0.0,0.0,87,0.00,,,1.50,WUHU216HW,2013-04-19 01:58:00,
2013-04-18 21:03:00,39.6,35.7,29.90,North,0,0.0,0.0,86,0.00,,,1.50,WUHU216HW,2013-04-19 02:03:00,
2013-04-18 21:08:00,39.4,35.6,29.91,North,0,0.0,0.0,86,0.00,,,1.50,WUHU216HW,2013-04-19 02:08:00,
2013-04-18 21:13:00,39.2,35.4,29.90,North,0,0.0,0.0,86,0.00,,,1.50,WUHU216HW,2013-04-19 02:13:00,
2013-04-18 21:18:00,39.1,35.2,29.90,North,0,0.0,0.0,86,0.00,,,1.50,WUHU216HW,2013-04-19 02:18:00,
2013-04-18 21:23:00,39.1,35.2,29.90,North,0,0.0,0.0,86,0.00,,,1.50,WUHU216HW,2013-04-19 02:23:00,
2013-04-18 21:28:00,38.9,34.7,29.90,North,0,0.0,0.0,85,0.00,,,1.50,WUHU216HW,2013-04-19 02:28:00,
2013-04-18 21:33:00,38.7,34.3,29.89,North,0,0.0,0.0,84,0.00,,,1.50,WUHU216HW,2013-04-19 02:33:00,
2013-04-18 21:38:00,38.5,34.4,29.89,North,0,0.0,0.0,85,0.00,,,1.50,WUHU216HW,2013-04-19 02:38:00,
2013-04-18 21:43:00,38.3,34.5,29.89,North,0,0.0,0.0,86,0.00,,,1.50,WUHU216HW,2013-04-19 02:43:00,
2013-04-18 21:48:00,38.2,34.3,29.89,North,0,0.0,0.0,86,0.00,,,1.50,WUHU216HW,2013-04-19 02:48:00,
2013-04-18 21:53:00,38.0,34.4,29.89,North,0,0.0,0.0,87,0.00,,,1.50,WUHU216HW,2013-04-19 02:53:00,
2013-04-18 21:58:00,38.0,34.1,29.89,North,0,0.0,0.0,86,0.00,,,1.50,WUHU216HW,2013-04-19 02:58:00,
2013-04-18 22:03:00,38.0,34.1,29.89,North,0,0.0,0.0,86,0.00,,,1.50,WUHU216HW,2013-04-19 03:03:00,
2013-04-18 22:08:00,37.8,34.2,29.90,North,0,0.0,0.0,87,0.00,,,1.50,WUHU216HW,2013-04-19 03:08:00,
2013-04-18 22:13:00,37.8,33.7,29.89,North,0,0.0,0.0,85,0.00,,,1.50,WUHU216HW,2013-04-19 03:13:00,
2013-04-18 22:18:00,37.8,33.7,29.89,North,0,0.0,0.0,85,0.00,,,1.50,WUHU216HW,2013-04-19 03:18:00,
2013-04-18 22:23:00,37.8,33.4,29.89,North,0,0.0,0.0,84,0.00,,,1.50,WUHU216HW,2013-04-19 03:23:00,
2013-04-18 22:28:00,37.6,33.8,29.89,North,0,0.0,0.0,86,0.00,,,1.50,WUHU216HW,2013-04-19 03:28:00,
2013-04-18 22:33:00,37.6,33.8,29.89,North,0,0.0,0.0,86,0.00,,,1.50,WUHU216HW,2013-04-19 03:33:00,
2013-04-18 22:38:00,37.6,33.8,29.89,North,0,0.0,0.0,86,0.00,,,1.50,WUHU216HW,2013-04-19 03:38:00,
2013-04-18 22:43:00,37.6,33.8,29.89,North,0,0.0,0.0,86,0.00,,,1.50,WUHU216HW,2013-04-19 03:43:00,
2013-04-18 22:48:00,37.6,33.8,29.89,North,0,0.0,0.0,86,0.00,,,1.50,WUHU216HW,2013-04-19 03:48:00,
2013-04-18 22:53:00,37.4,33.8,29.89,North,0,0.0,0.0,87,0.00,,,1.50,WUHU216HW,2013-04-19 03:53:00,
2013-04-18 22:58:00,37.4,33.8,29.89,North,0,0.0,0.0,87,0.00,,,1.50,WUHU216HW,2013-04-19 03:58:00,
2013-04-18 23:01:00,37.4,33.8,29.89,North,0,0.0,0.0,87,0.00,,,1.50,WUHU216HW,2013-04-19 04:01:00,
2013-04-18 23:06:00,37.4,33.8,29.89,North,0,0.0,0.0,87,0.00,,,1.50,WUHU216HW,2013-04-19 04:06:00,
2013-04-18 23:11:00,37.4,33.6,29.88,North,0,0.0,0.0,86,0.00,,,1.50,WUHU216HW,2013-04-19 04:11:00,
2013-04-18 23:16:00,37.4,33.3,29.88,North,0,0.0,0.0,85,0.00,,,1.50,WUHU216HW,2013-04-19 04:16:00,
2013-04-18 23:21:00,37.3,33.4,29.87,North,0,0.0,0.0,86,0.00,,,1.50,WUHU216HW,2013-04-19 04:21:00,
2013-04-18 23:26:00,37.3,33.4,29.87,North,0,0.0,0.0,86,0.00,,,1.50,WUHU216HW,2013-04-19 04:26:00,
2013-04-18 23:31:00,37.3,33.1,29.87,North,0,0.0,0.0,85,0.00,,,1.50,WUHU216HW,2013-04-19 04:31:00,
2013-04-18 23:36:00,37.3,32.9,29.86,North,0,0.0,0.0,84,0.00,,,1.50,WUHU216HW,2013-04-19 04:36:00,
2013-04-18 23:41:00,37.1,32.7,29.86,North,0,0.0,0.0,84,0.00,,,1.50,WUHU216HW,2013-04-19 04:41:00,
2013-04-18 23:46:00,37.1,32.4,29.86,North,0,0.0,0.0,83,0.00,,,1.50,WUHU216HW,2013-04-19 04:46:00,
2013-04-18 23:51:00,37.1,32.7,29.86,North,0,0.0,0.0,84,0.00,,,1.50,WUHU216HW,2013-04-19 04:51:00,
2013-04-18 23:56:00,36.9,32.5,29.86,North,0,0.0,0.0,84,0.00,,,1.50,WUHU216HW,2013-04-19 04:56:00,